Location: Zagreb
(45.8000°N, 16.0000°E)
Time: 18:13:31
(UTC+01:00)

N. Korean satellite - Pass Details

Date: 03 December 2021
Orbit: 447 x 491 km, 97.3° (Epoch: 23 January)

Event Time Altitude Azimuth Distance (km) Brightness Sun altitude
Rises 16:54:26 0° 190° (S) 2,533 10.7 -7.3°
Reaches altitude 10° 16:56:41 10° 201° (SSW) 1,651 10.0 -7.6°
Maximum altitude 16:59:49 29° 264° (W) 900 8.8 -8.1°
Drops below altitude 10° 17:02:56 10° 326° (NW) 1,640 9.4 -8.6°
Sets 17:05:10 0° 338° (NNW) 2,513 10.2 -9.0°
